Time,TemperatureF,DewpointF,PressureIn,WindDirection,WindDirectionDegrees,WindSpeedMPH,WindSpeedGustMPH,Humidity,HourlyPrecipIn,Conditions,Clouds,dailyrainin,SolarRadiationWatts/m^2,SoftwareType,DateUTC
2013-10-17 00:01:00,62.1,56.2,29.91,SSE,167,0.0,0.0,81,0.00,BKN,,0.00,0.0,WeatherDisplay:10.37,2013-10-17 04:01:00,
2013-10-17 00:02:00,62.1,56.2,29.90,SSE,167,0.0,0.0,81,0.00,BKN,,0.00,0.0,WeatherDisplay:10.37,2013-10-17 04:02:00,
2013-10-17 00:06:00,62.0,56.4,29.90,SSE,167,0.0,0.0,82,0.00,BKN,,0.00,0.0,WeatherDisplay:10.37,2013-10-17 04:06:00,
2013-10-17 00:11:00,62.0,56.4,29.90,SSE,167,0.0,0.0,82,0.00,BKN,,0.00,0.0,WeatherDisplay:10.37,2013-10-17 04:11:00,
2013-10-17 00:16:00,61.8,56.2,29.90,SSE,167,0.0,0.0,82,0.00,BKN,,0.00,0.0,WeatherDisplay:10.37,2013-10-17 04:16:00,
2013-10-17 00:21:00,61.6,56.4,29.90,SSE,167,0.0,0.0,83,0.00,BKN,,0.00,0.0,WeatherDisplay:10.37,2013-10-17 04:21:00,
2013-10-17 00:26:00,61.6,56.4,29.90,SSE,167,0.0,0.0,83,0.00,BKN,,0.00,0.0,WeatherDisplay:10.37,2013-10-17 04:26:00,
2013-10-17 00:31:00,61.6,56.4,29.89,SSE,167,0.0,0.0,83,0.00,BKN,,0.00,0.0,WeatherDisplay:10.37,2013-10-17 04:31:00,
2013-10-17 00:36:00,61.5,56.3,29.89,SSE,167,0.0,0.0,83,0.00,BKN,,0.00,0.0,WeatherDisplay:10.37,2013-10-17 04:36:00,
2013-10-17 00:41:00,61.5,56.6,29.89,SSE,167,0.0,0.0,84,0.00,BKN,,0.00,0.0,WeatherDisplay:10.37,2013-10-17 04:41:00,
2013-10-17 00:46:00,61.3,56.4,29.89,SSE,167,0.0,0.0,84,0.00,BKN,,0.00,0.0,WeatherDisplay:10.37,2013-10-17 04:46:00,
2013-10-17 00:51:00,61.3,56.4,29.89,SSE,167,0.0,0.0,84,0.00,BKN,,0.00,0.0,WeatherDisplay:10.37,2013-10-17 04:51:00,
2013-10-17 00:56:00,61.3,56.4,29.89,SSE,167,0.0,0.0,84,0.00,BKN,,0.00,0.0,WeatherDisplay:10.37,2013-10-17 04:56:00,
2013-10-17 01:01:00,61.3,56.4,29.89,SSE,167,0.0,0.0,84,0.00,OVC,,0.00,0.0,WeatherDisplay:10.37,2013-10-17 05:01:00,
2013-10-17 01:06:00,61.2,56.7,29.89,SSE,167,0.0,0.0,85,0.00,OVC,,0.00,0.0,WeatherDisplay:10.37,2013-10-17 05:06:00,
2013-10-17 01:11:00,61.0,56.5,29.89,SSE,167,0.0,0.0,85,0.00,OVC,,0.00,0.0,WeatherDisplay:10.37,2013-10-17 05:11:00,
2013-10-17 01:16:00,60.9,56.4,29.89,SSE,167,0.0,0.0,85,0.00,OVC,,0.00,0.0,WeatherDisplay:10.37,2013-10-17 05:16:00,
2013-10-17 01:21:00,60.7,56.2,29.89,SSE,167,0.0,0.0,85,0.00,OVC,,0.00,0.0,WeatherDisplay:10.37,2013-10-17 05:21:00,
2013-10-17 01:26:00,60.5,56.0,29.89,SSE,167,0.0,0.0,85,0.00,OVC,,0.00,0.0,WeatherDisplay:10.37,2013-10-17 05:26:00,
2013-10-17 01:31:00,60.4,56.2,29.89,SSE,167,0.0,0.0,86,0.00,OVC,,0.00,0.0,WeatherDisplay:10.37,2013-10-17 05:31:00,
2013-10-17 01:36:00,60.4,56.2,29.89,SSE,167,0.0,0.0,86,0.00,OVC,,0.00,0.0,WeatherDisplay:10.37,2013-10-17 05:36:00,
2013-10-17 01:41:00,60.2,56.0,29.89,SSE,167,0.0,0.0,86,0.00,OVC,,0.00,0.0,WeatherDisplay:10.37,2013-10-17 05:41:00,
2013-10-17 01:46:00,60.1,55.9,29.89,SSE,167,0.0,0.0,86,0.00,OVC,,0.00,0.0,WeatherDisplay:10.37,2013-10-17 05:46:00,
2013-10-17 01:51:00,59.8,55.6,29.89,SSE,167,0.0,0.0,86,0.00,OVC,,0.00,0.0,WeatherDisplay:10.37,2013-10-17 05:51:00,
2013-10-17 01:56:00,59.5,55.3,29.89,SSE,167,0.0,0.0,86,0.00,OVC,,0.00,0.0,WeatherDisplay:10.37,2013-10-17 05:56:00,
2013-10-17 02:01:00,59.3,55.1,29.90,SSE,167,0.0,0.0,86,0.00,CLR,,0.00,0.0,WeatherDisplay:10.37,2013-10-17 06:01:00,
2013-10-17 02:06:00,59.2,55.0,29.89,SSE,167,0.0,0.0,86,0.00,CLR,,0.00,0.0,WeatherDisplay:10.37,2013-10-17 06:06:00,
2013-10-17 02:11:00,59.0,55.1,29.90,SSE,167,0.0,0.0,87,0.00,CLR,,0.00,0.0,WeatherDisplay:10.37,2013-10-17 06:11:00,
2013-10-17 02:16:00,58.7,54.5,29.89,SSE,167,0.0,0.0,86,0.00,CLR,,0.00,0.0,WeatherDisplay:10.37,2013-10-17 06:16:00,
2013-10-17 02:21:00,58.3,54.4,29.89,SSE,167,0.0,0.0,87,0.00,CLR,,0.00,0.0,WeatherDisplay:10.37,2013-10-17 06:21:00,
2013-10-17 02:26:00,58.1,54.2,29.89,SSE,167,0.0,0.0,87,0.00,CLR,,0.00,0.0,WeatherDisplay:10.37,2013-10-17 06:26:00,
2013-10-17 02:31:00,58.0,54.2,29.89,SSE,167,0.0,0.0,87,0.00,CLR,,0.00,0.0,WeatherDisplay:10.37,2013-10-17 06:31:00,
2013-10-17 02:36:00,57.8,54.0,29.89,SSE,167,0.0,0.0,87,0.00,CLR,,0.00,0.0,WeatherDisplay:10.37,2013-10-17 06:36:00,
2013-10-17 02:41:00,57.6,54.1,29.89,SSE,167,0.0,0.0,88,0.00,CLR,,0.00,0.0,WeatherDisplay:10.37,2013-10-17 06:41:00,
2013-10-17 02:46:00,57.5,54.0,29.90,SSE,167,0.0,0.0,88,0.00,CLR,,0.00,0.0,WeatherDisplay:10.37,2013-10-17 06:46:00,
2013-10-17 02:51:00,57.5,54.0,29.89,SSE,167,0.0,0.0,88,0.00,CLR,,0.00,0.0,WeatherDisplay:10.37,2013-10-17 06:51:00,
2013-10-17 02:56:00,57.3,53.8,29.89,SSE,167,0.0,0.0,88,0.00,CLR,,0.00,0.0,WeatherDisplay:10.37,2013-10-17 06:56:00,
2013-10-17 03:01:00,57.2,53.7,29.89,SSE,167,0.0,0.0,88,0.00,BKN,,0.00,0.0,WeatherDisplay:10.37,2013-10-17 07:01:00,
2013-10-17 03:06:00,57.2,53.7,29.89,SSE,167,0.0,0.0,88,0.00,BKN,,0.00,0.0,WeatherDisplay:10.37,2013-10-17 07:06:00,
2013-10-17 03:11:00,57.2,53.7,29.88,SSE,167,0.0,0.0,88,0.00,BKN,,0.00,0.0,WeatherDisplay:10.37,2013-10-17 07:11:00,
2013-10-17 03:16:00,57.2,53.7,29.88,SSE,167,0.0,0.0,88,0.00,BKN,,0.00,0.0,WeatherDisplay:10.37,2013-10-17 07:16:00,
2013-10-17 03:21:00,57.0,53.5,29.88,SSE,167,0.0,0.0,88,0.00,BKN,,0.00,0.0,WeatherDisplay:10.37,2013-10-17 07:21:00,
2013-10-17 03:26:00,57.0,53.5,29.88,SSE,167,0.0,0.0,88,0.00,BKN,,0.00,0.0,WeatherDisplay:10.37,2013-10-17 07:26:00,
2013-10-17 03:31:00,56.9,53.4,29.88,SSE,167,0.0,0.0,88,0.00,BKN,,0.00,0.0,WeatherDisplay:10.37,2013-10-17 07:31:00,
2013-10-17 03:36:00,56.7,53.2,29.88,SSE,167,0.0,0.0,88,0.00,BKN,,0.00,0.0,WeatherDisplay:10.37,2013-10-17 07:36:00,
2013-10-17 03:41:00,56.6,53.1,29.87,SSE,167,0.0,0.0,88,0.00,BKN,,0.00,0.0,WeatherDisplay:10.37,2013-10-17 07:41:00,
2013-10-17 03:46:00,56.3,52.8,29.87,SSE,167,0.0,0.0,88,0.00,BKN,,0.00,0.0,WeatherDisplay:10.37,2013-10-17 07:46:00,
2013-10-17 03:51:00,56.0,52.5,29.87,SSE,167,0.0,0.0,88,0.00,BKN,,0.00,0.0,WeatherDisplay:10.37,2013-10-17 07:51:00,
2013-10-17 03:56:00,55.9,52.7,29.87,SSE,167,0.0,0.0,89,0.00,BKN,,0.00,0.0,WeatherDisplay:10.37,2013-10-17 07:56:00,
2013-10-17 04:01:00,55.7,52.5,29.87,SSE,167,0.0,0.0,89,0.00,BKN,,0.00,0.0,WeatherDisplay:10.37,2013-10-17 08:01:00,
2013-10-17 04:06:00,55.7,52.5,29.87,SSE,167,0.0,0.0,89,0.00,BKN,,0.00,0.0,WeatherDisplay:10.37,2013-10-17 08:06:00,
2013-10-17 04:08:00,55.6,52.4,29.88,SSE,167,0.0,0.0,89,0.00,BKN,,0.00,0.0,WeatherDisplay:10.37,2013-10-17 08:08:00,
2013-10-17 04:13:00,55.4,52.2,29.88,SSE,167,0.0,0.0,89,0.00,BKN,,0.00,0.0,WeatherDisplay:10.37,2013-10-17 08:13:00,
2013-10-17 04:18:00,55.4,52.2,29.88,SSE,167,0.0,0.0,89,0.00,BKN,,0.00,0.0,WeatherDisplay:10.37,2013-10-17 08:18:00,
2013-10-17 04:23:00,55.7,52.5,29.88,SSE,167,0.0,0.0,89,0.00,BKN,,0.00,0.0,WeatherDisplay:10.37,2013-10-17 08:23:00,
2013-10-17 04:28:00,55.7,52.5,29.88,SSE,167,0.0,0.0,89,0.00,BKN,,0.00,0.0,WeatherDisplay:10.37,2013-10-17 08:28:00,
2013-10-17 04:33:00,55.4,52.2,29.88,SSE,167,0.0,0.0,89,0.00,BKN,,0.00,0.0,WeatherDisplay:10.37,2013-10-17 08:33:00,
2013-10-17 04:38:00,55.1,51.9,29.88,SSE,167,0.0,0.0,89,0.00,BKN,,0.00,0.0,WeatherDisplay:10.37,2013-10-17 08:38:00,
2013-10-17 04:43:00,55.1,52.2,29.88,SSE,167,0.0,0.0,90,0.00,BKN,,0.00,0.0,WeatherDisplay:10.37,2013-10-17 08:43:00,
2013-10-17 04:48:00,55.1,52.2,29.87,SSE,167,0.0,0.0,90,0.00,BKN,,0.00,0.0,WeatherDisplay:10.37,2013-10-17 08:48:00,
2013-10-17 04:53:00,55.1,52.2,29.87,SSE,167,0.0,0.0,90,0.00,BKN,,0.00,0.0,WeatherDisplay:10.37,2013-10-17 08:53:00,
2013-10-17 04:58:00,55.1,52.2,29.88,SSE,167,0.0,0.0,90,0.00,BKN,,0.00,0.0,WeatherDisplay:10.37,2013-10-17 08:58:00,
2013-10-17 05:03:00,55.4,52.5,29.88,SSE,167,0.0,0.0,90,0.00,CLR,,0.00,0.0,WeatherDisplay:10.37,2013-10-17 09:03:00,
2013-10-17 05:08:00,55.4,52.5,29.88,SSE,167,0.0,0.0,90,0.00,CLR,,0.00,0.0,WeatherDisplay:10.37,2013-10-17 09:08:00,
2013-10-17 05:13:00,55.6,52.7,29.88,SSE,167,0.0,0.0,90,0.00,CLR,,0.00,0.0,WeatherDisplay:10.37,2013-10-17 09:13:00,
2013-10-17 05:18:00,55.7,52.8,29.88,SSE,167,0.0,0.0,90,0.00,CLR,,0.00,0.0,WeatherDisplay:10.37,2013-10-17 09:18:00,
2013-10-17 05:23:00,55.9,53.3,29.88,SSE,167,0.0,0.0,91,0.00,CLR,,0.00,0.0,WeatherDisplay:10.37,2013-10-17 09:23:00,
2013-10-17 05:28:00,55.9,53.3,29.88,SSE,167,0.0,0.0,91,0.00,CLR,,0.00,0.0,WeatherDisplay:10.37,2013-10-17 09:28:00,
2013-10-17 05:33:00,56.0,53.4,29.88,SSE,167,0.0,0.0,91,0.00,CLR,,0.00,0.0,WeatherDisplay:10.37,2013-10-17 09:33:00,
2013-10-17 05:38:00,56.5,53.9,29.88,SSE,167,0.0,0.0,91,0.00,CLR,,0.00,0.0,WeatherDisplay:10.37,2013-10-17 09:38:00,
2013-10-17 05:43:00,56.6,54.0,29.88,SSE,167,0.0,0.0,91,0.00,CLR,,0.00,0.0,WeatherDisplay:10.37,2013-10-17 09:43:00,
2013-10-17 05:48:00,56.7,54.1,29.88,SSE,167,0.0,0.0,91,0.00,CLR,,0.00,0.0,WeatherDisplay:10.37,2013-10-17 09:48:00,
2013-10-17 05:53:00,57.3,54.7,29.88,SSE,167,0.0,0.0,91,0.00,FEW,,0.00,0.0,WeatherDisplay:10.37,2013-10-17 09:53:00,
2013-10-17 05:58:00,57.8,55.2,29.88,SSE,167,0.0,0.0,91,0.00,FEW,,0.00,0.0,WeatherDisplay:10.37,2013-10-17 09:58:00,
2013-10-17 06:03:00,57.8,55.2,29.88,SSE,167,0.0,0.0,91,0.00,FEW,,0.00,0.0,WeatherDisplay:10.37,2013-10-17 10:03:00,
2013-10-17 06:08:00,57.8,55.2,29.89,SSE,167,0.0,0.0,91,0.00,FEW,,0.00,0.0,WeatherDisplay:10.37,2013-10-17 10:08:00,
2013-10-17 06:13:00,57.8,55.2,29.89,SSE,167,0.0,0.0,91,0.00,OVC,,0.00,0.0,WeatherDisplay:10.37,2013-10-17 10:13:00,
2013-10-17 06:18:00,57.8,55.2,29.89,SSE,167,0.0,0.0,91,0.00,OVC,,0.00,0.0,WeatherDisplay:10.37,2013-10-17 10:18:00,
2013-10-17 06:23:00,57.6,55.0,29.88,SSE,167,0.0,0.0,91,0.00,OVC,,0.00,0.0,WeatherDisplay:10.37,2013-10-17 10:23:00,
2013-10-17 06:28:00,57.5,54.9,29.88,SSE,167,0.0,0.0,91,0.00,OVC,,0.00,0.0,WeatherDisplay:10.37,2013-10-17 10:28:00,
2013-10-17 06:33:00,57.2,54.6,29.89,SSE,167,0.0,0.0,91,0.00,OVC,,0.00,0.0,WeatherDisplay:10.37,2013-10-17 10:33:00,
2013-10-17 06:38:00,57.0,54.4,29.88,SSE,167,0.0,0.0,91,0.00,OVC,,0.00,0.0,WeatherDisplay:10.37,2013-10-17 10:38:00,
2013-10-17 06:43:00,56.9,54.3,29.88,SSE,167,0.0,0.0,91,0.00,OVC,,0.00,0.0,WeatherDisplay:10.37,2013-10-17 10:43:00,
2013-10-17 06:48:00,56.9,54.3,29.88,SSE,167,0.0,0.0,91,0.00,OVC,,0.00,0.0,WeatherDisplay:10.37,2013-10-17 10:48:00,
2013-10-17 06:53:00,56.9,54.3,29.89,SSE,167,0.0,0.0,91,0.00,OVC,,0.00,0.0,WeatherDisplay:10.37,2013-10-17 10:53:00,
2013-10-17 06:58:00,57.2,54.6,29.89,SSE,167,0.0,0.0,91,0.00,OVC,,0.00,0.0,WeatherDisplay:10.37,2013-10-17 10:58:00,
2013-10-17 07:03:00,57.2,54.6,29.89,SSE,167,0.0,0.0,91,0.00,OVC,,0.00,0.0,WeatherDisplay:10.37,2013-10-17 11:03:00,
2013-10-17 07:08:00,57.2,54.6,29.89,SSE,167,0.0,0.0,91,0.00,OVC,,0.00,0.0,WeatherDisplay:10.37,2013-10-17 11:08:00,
2013-10-17 07:13:00,57.2,54.6,29.89,SSE,167,0.0,0.0,91,0.00,BKN,,0.00,0.0,WeatherDisplay:10.37,2013-10-17 11:13:00,
2013-10-17 07:18:00,57.2,54.6,29.89,SSE,167,0.0,0.0,91,0.00,BKN,,0.00,0.0,WeatherDisplay:10.37,2013-10-17 11:18:00,
2013-10-17 07:23:00,57.2,54.6,29.89,SSE,167,0.0,0.0,91,0.00,BKN,,0.00,0.0,WeatherDisplay:10.37,2013-10-17 11:23:00,
2013-10-17 07:28:00,57.2,54.6,29.89,SSE,167,0.0,0.0,91,0.00,BKN,,0.00,0.0,WeatherDisplay:10.37,2013-10-17 11:28:00,
2013-10-17 07:33:00,57.2,54.6,29.89,SSE,167,0.0,0.0,91,0.00,BKN,,0.00,5.0,WeatherDisplay:10.37,2013-10-17 11:33:00,
2013-10-17 07:38:00,57.3,55.0,29.90,SSE,167,0.0,0.0,92,0.00,BKN,,0.00,9.0,WeatherDisplay:10.37,2013-10-17 11:38:00,
2013-10-17 07:43:00,57.3,54.7,29.90,SSE,167,0.0,0.0,91,0.00,BKN,,0.00,16.0,WeatherDisplay:10.37,2013-10-17 11:43:00,
2013-10-17 07:48:00,57.3,55.0,29.90,SSE,167,0.0,0.0,92,0.00,BKN,,0.00,16.0,WeatherDisplay:10.37,2013-10-17 11:48:00,
2013-10-17 07:53:00,57.5,55.2,29.90,SSE,167,0.0,0.0,92,0.00,BKN,,0.00,16.0,WeatherDisplay:10.37,2013-10-17 11:53:00,
2013-10-17 07:58:00,57.6,55.3,29.90,SSE,167,0.0,0.0,92,0.00,BKN,,0.00,25.0,WeatherDisplay:10.37,2013-10-17 11:58:00,
2013-10-17 08:03:00,57.8,55.5,29.90,SSE,167,0.0,0.0,92,0.00,BKN,,0.00,32.0,WeatherDisplay:10.37,2013-10-17 12:03:00,
2013-10-17 08:08:00,58.0,55.7,29.90,SSE,167,0.0,0.0,92,0.00,BKN,,0.00,44.0,WeatherDisplay:10.37,2013-10-17 12:08:00,
2013-10-17 08:13:00,58.3,56.0,29.90,SSE,167,0.0,0.0,92,0.00,OVC,,0.00,42.0,WeatherDisplay:10.37,2013-10-17 12:13:00,
2013-10-17 08:18:00,58.6,56.3,29.90,SSE,167,0.0,0.0,92,0.00,OVC,,0.00,40.0,WeatherDisplay:10.37,2013-10-17 12:18:00,
2013-10-17 08:23:00,59.2,56.9,29.90,SSE,167,0.0,0.0,92,0.00,OVC,,0.00,46.0,WeatherDisplay:10.37,2013-10-17 12:23:00,
2013-10-17 08:28:00,59.3,57.0,29.90,SSE,167,0.0,0.0,92,0.00,OVC,,0.00,53.0,WeatherDisplay:10.37,2013-10-17 12:28:00,
2013-10-17 08:33:00,59.6,57.3,29.90,SSE,167,0.0,0.0,92,0.00,OVC,,0.00,67.0,WeatherDisplay:10.37,2013-10-17 12:33:00,
2013-10-17 08:38:00,59.8,57.5,29.91,SSE,168,1.5,3.5,92,0.00,OVC,,0.00,79.0,WeatherDisplay:10.37,2013-10-17 12:38:00,
2013-10-17 18:21:00,67.6,60.5,29.71,SSE,166,2.0,18.4,78,0.00,OVC,,0.04,0.0,WeatherDisplay:10.37,2013-10-17 22:21:00,
2013-10-17 18:26:00,67.8,60.7,29.71,SSE,167,2.9,6.0,78,0.00,BKN,,0.04,0.0,WeatherDisplay:10.37,2013-10-17 22:26:00,
2013-10-17 18:31:00,67.8,60.7,29.71,SSE,162,2.8,5.8,78,0.00,BKN,,0.04,0.0,WeatherDisplay:10.37,2013-10-17 22:31:00,
2013-10-17 18:36:00,67.8,61.0,29.71,SSE,165,4.3,6.0,79,0.00,BKN,,0.04,0.0,WeatherDisplay:10.37,2013-10-17 22:36:00,
2013-10-17 18:41:00,67.6,60.9,29.71,South,169,0.4,1.5,79,0.00,BKN,,0.04,0.0,WeatherDisplay:10.37,2013-10-17 22:41:00,
2013-10-17 18:46:00,67.4,60.7,29.71,SSE,155,0.1,1.2,79,0.00,BKN,,0.04,0.0,WeatherDisplay:10.37,2013-10-17 22:46:00,
2013-10-17 18:51:00,67.4,60.7,29.71,SSE,157,2.9,7.5,79,0.00,BKN,,0.04,0.0,WeatherDisplay:10.37,2013-10-17 22:51:00,
2013-10-17 18:56:00,67.3,60.2,29.70,SSE,158,0.1,5.8,78,0.00,BKN,,0.04,0.0,WeatherDisplay:10.37,2013-10-17 22:56:00,
2013-10-17 19:01:00,67.4,60.3,29.71,South,185,4.0,8.1,78,0.00,OVC,,0.04,0.0,WeatherDisplay:10.37,2013-10-17 23:01:00,
2013-10-17 19:06:00,67.4,59.6,29.70,South,184,4.0,5.8,76,0.00,OVC,,0.04,0.0,WeatherDisplay:10.37,2013-10-17 23:06:00,
2013-10-17 19:11:00,67.4,58.8,29.70,SSE,168,0.1,1.2,74,0.00,OVC,,0.04,0.0,WeatherDisplay:10.37,2013-10-17 23:11:00,
2013-10-17 19:16:00,67.4,58.4,29.70,SSW,207,0.6,5.8,73,0.00,OVC,,0.04,0.0,WeatherDisplay:10.37,2013-10-17 23:16:00,
2013-10-17 19:21:00,67.3,58.0,29.71,SSW,207,1.8,4.6,72,0.00,OVC,,0.04,0.0,WeatherDisplay:10.37,2013-10-17 23:21:00,
2013-10-17 19:26:00,67.3,58.0,29.71,SSW,200,5.8,15.0,72,0.00,OVC,,0.04,0.0,WeatherDisplay:10.37,2013-10-17 23:26:00,
2013-10-17 19:31:00,67.4,57.7,29.71,SSW,211,3.2,5.8,71,0.00,OVC,,0.04,0.0,WeatherDisplay:10.37,2013-10-17 23:31:00,
2013-10-17 19:36:00,67.3,57.6,29.71,SW,216,1.8,3.5,71,0.00,OVC,,0.04,0.0,WeatherDisplay:10.37,2013-10-17 23:36:00,
2013-10-17 19:41:00,67.1,57.4,29.71,South,181,2.2,4.6,71,0.00,OVC,,0.04,0.0,WeatherDisplay:10.37,2013-10-17 23:41:00,
2013-10-17 19:46:00,66.9,57.6,29.71,South,186,2.4,4.6,72,0.00,OVC,,0.04,0.0,WeatherDisplay:10.37,2013-10-17 23:46:00,
2013-10-17 19:51:00,66.9,57.6,29.71,South,175,2.7,5.8,72,0.00,OVC,,0.04,0.0,WeatherDisplay:10.37,2013-10-17 23:51:00,
2013-10-17 19:56:00,66.8,57.5,29.71,South,175,0.1,1.5,72,0.00,OVC,,0.04,0.0,WeatherDisplay:10.37,2013-10-17 23:56:00,
2013-10-17 20:01:00,66.8,57.5,29.71,South,175,0.2,1.5,72,0.00,BKN,,0.04,0.0,WeatherDisplay:10.37,2013-10-18 00:01:00,
2013-10-17 20:06:00,66.8,57.9,29.72,South,182,0.7,3.5,73,0.00,BKN,,0.04,0.0,WeatherDisplay:10.37,2013-10-18 00:06:00,
2013-10-17 20:11:00,66.8,57.9,29.72,SSW,204,5.3,6.0,73,0.00,BKN,,0.04,0.0,WeatherDisplay:10.37,2013-10-18 00:11:00,
2013-10-17 20:16:00,66.9,58.0,29.74,WSW,252,4.4,6.0,73,0.00,BKN,,0.04,0.0,WeatherDisplay:10.37,2013-10-18 00:16:00,
2013-10-17 20:21:00,66.8,58.6,29.76,WNW,287,17.8,20.7,75,0.03,RA,,0.07,0.0,WeatherDisplay:10.37,2013-10-18 00:21:00,
2013-10-17 20:26:00,65.6,58.6,29.76,West,277,6.3,18.4,78,0.05,RA,,0.09,0.0,WeatherDisplay:10.37,2013-10-18 00:26:00,
2013-10-17 20:31:00,65.0,58.3,29.76,West,269,4.5,10.4,79,0.05,RA,,0.09,0.0,WeatherDisplay:10.37,2013-10-18 00:31:00,
2013-10-17 20:36:00,64.7,58.4,29.77,WNW,284,2.6,10.4,80,0.05,BKN,,0.09,0.0,WeatherDisplay:10.37,2013-10-18 00:36:00,
2013-10-17 20:41:00,64.5,58.5,29.77,WNW,296,4.9,7.5,81,0.05,BKN,,0.09,0.0,WeatherDisplay:10.37,2013-10-18 00:41:00,
2013-10-17 20:46:00,64.3,58.3,29.77,NW,304,6.4,10.4,81,0.05,BKN,,0.09,0.0,WeatherDisplay:10.37,2013-10-18 00:46:00,
2013-10-17 20:51:00,64.2,57.9,29.78,WNW,298,11.9,13.8,80,0.05,BKN,,0.09,0.0,WeatherDisplay:10.37,2013-10-18 00:51:00,
2013-10-17 20:56:00,64.0,57.0,29.78,WNW,285,2.8,6.0,78,0.05,BKN,,0.09,0.0,WeatherDisplay:10.37,2013-10-18 00:56:00,
2013-10-17 21:01:00,63.9,56.2,29.78,NW,311,6.8,18.4,76,0.05,OVC,,0.09,0.0,WeatherDisplay:10.37,2013-10-18 01:01:00,
2013-10-17 21:06:00,63.9,55.8,29.78,WNW,289,5.9,9.2,75,0.05,OVC,,0.09,0.0,WeatherDisplay:10.37,2013-10-18 01:06:00,
2013-10-17 21:11:00,63.9,55.1,29.79,West,275,3.7,8.1,73,0.05,OVC,,0.09,0.0,WeatherDisplay:10.37,2013-10-18 01:11:00,
2013-10-17 21:16:00,63.7,54.1,29.79,WNW,290,12.1,15.0,71,0.05,OVC,,0.09,0.0,WeatherDisplay:10.37,2013-10-18 01:16:00,
2013-10-17 21:21:00,63.7,54.1,29.79,WNW,294,2.9,8.1,71,0.02,OVC,,0.09,0.0,WeatherDisplay:10.37,2013-10-18 01:21:00,
2013-10-17 21:26:00,63.5,53.9,29.79,West,271,0.5,1.5,71,0.00,OVC,,0.09,0.0,WeatherDisplay:10.37,2013-10-18 01:26:00,
2013-10-17 21:31:00,63.2,53.6,29.80,West,271,1.0,3.5,71,0.00,OVC,,0.09,0.0,WeatherDisplay:10.37,2013-10-18 01:31:00,
2013-10-17 21:36:00,62.9,53.4,29.79,WNW,292,0.8,1.5,71,0.00,OVC,,0.09,0.0,WeatherDisplay:10.37,2013-10-18 01:36:00,
2013-10-17 21:41:00,62.6,53.1,29.80,NW,310,4.0,9.2,71,0.00,OVC,,0.09,0.0,WeatherDisplay:10.37,2013-10-18 01:41:00,
2013-10-17 21:46:00,62.4,52.9,29.80,WNW,284,3.2,5.8,71,0.00,OVC,,0.09,0.0,WeatherDisplay:10.37,2013-10-18 01:46:00,
2013-10-17 21:51:00,62.4,52.5,29.80,WNW,283,2.4,6.0,70,0.00,OVC,,0.09,0.0,WeatherDisplay:10.37,2013-10-18 01:51:00,
2013-10-17 21:56:00,62.3,52.8,29.80,WNW,290,4.5,13.5,71,0.00,OVC,,0.09,0.0,WeatherDisplay:10.37,2013-10-18 01:56:00,
2013-10-17 22:01:00,62.1,52.6,29.81,WNW,301,5.6,8.1,71,0.00,-RA,,0.09,0.0,WeatherDisplay:10.37,2013-10-18 02:01:00,
2013-10-17 22:06:00,62.1,52.2,29.82,WSW,242,7.2,16.1,70,0.00,-RA,,0.09,0.0,WeatherDisplay:10.37,2013-10-18 02:06:00,
2013-10-17 22:11:00,62.1,51.4,29.82,West,271,11.4,18.0,68,0.00,-RA,,0.09,0.0,WeatherDisplay:10.37,2013-10-18 02:11:00,
2013-10-17 22:16:00,62.1,50.6,29.82,WSW,250,15.2,21.0,66,0.00,-RA,,0.09,0.0,WeatherDisplay:10.37,2013-10-18 02:16:00,
2013-10-17 22:21:00,62.0,49.7,29.83,WSW,251,20.3,24.2,64,0.00,OVC,,0.09,0.0,WeatherDisplay:10.37,2013-10-18 02:21:00,
2013-10-17 22:26:00,61.8,48.2,29.83,West,263,10.9,16.1,61,0.00,OVC,,0.09,0.0,WeatherDisplay:10.37,2013-10-18 02:26:00,
2013-10-17 22:31:00,61.5,47.9,29.83,NW,325,8.1,13.5,61,0.00,OVC,,0.09,0.0,WeatherDisplay:10.37,2013-10-18 02:31:00,
2013-10-17 22:36:00,61.3,47.3,29.83,SW,232,5.5,16.1,60,0.00,OVC,,0.09,0.0,WeatherDisplay:10.37,2013-10-18 02:36:00,
2013-10-17 22:41:00,61.2,47.6,29.84,WNW,291,7.2,10.5,61,0.00,OVC,,0.09,0.0,WeatherDisplay:10.37,2013-10-18 02:41:00,
2013-10-17 22:46:00,61.0,47.4,29.84,WNW,294,6.9,7.5,61,0.00,OVC,,0.09,0.0,WeatherDisplay:10.37,2013-10-18 02:46:00,
2013-10-17 22:51:00,60.9,47.8,29.84,WNW,296,0.3,5.8,62,0.00,OVC,,0.09,0.0,WeatherDisplay:10.37,2013-10-18 02:51:00,
2013-10-17 22:56:00,60.7,48.0,29.84,WNW,293,0.0,4.6,63,0.00,OVC,,0.09,0.0,WeatherDisplay:10.37,2013-10-18 02:56:00,
2013-10-17 23:01:00,60.5,47.8,29.85,West,281,2.9,6.0,63,0.00,BKN,,0.09,0.0,WeatherDisplay:10.37,2013-10-18 03:01:00,
2013-10-17 23:06:00,60.4,47.7,29.85,West,277,3.0,5.8,63,0.00,BKN,,0.09,0.0,WeatherDisplay:10.37,2013-10-18 03:06:00,
2013-10-17 23:11:00,60.4,47.7,29.85,WNW,292,7.1,9.2,63,0.00,BKN,,0.09,0.0,WeatherDisplay:10.37,2013-10-18 03:11:00,
2013-10-17 23:16:00,60.2,47.6,29.85,NW,310,7.6,10.4,63,0.00,BKN,,0.09,0.0,WeatherDisplay:10.37,2013-10-18 03:16:00,
2013-10-17 23:21:00,60.2,47.6,29.85,WNW,284,4.6,8.1,63,0.00,BKN,,0.09,0.0,WeatherDisplay:10.37,2013-10-18 03:21:00,
2013-10-17 23:26:00,60.2,47.1,29.85,NW,307,10.6,20.7,62,0.00,BKN,,0.09,0.0,WeatherDisplay:10.37,2013-10-18 03:26:00,
2013-10-17 23:31:00,60.1,46.2,29.85,WNW,291,12.8,20.7,60,0.00,BKN,,0.09,0.0,WeatherDisplay:10.37,2013-10-18 03:31:00,
2013-10-17 23:36:00,59.9,46.0,29.85,NW,310,14.8,18.0,60,0.00,BKN,,0.09,0.0,WeatherDisplay:10.37,2013-10-18 03:36:00,
2013-10-17 23:41:00,59.8,45.0,29.86,WNW,288,17.3,24.2,58,0.00,BKN,,0.09,0.0,WeatherDisplay:10.37,2013-10-18 03:41:00,
2013-10-17 23:46:00,59.6,44.3,29.86,WNW,300,11.0,23.0,57,0.00,BKN,,0.09,0.0,WeatherDisplay:10.37,2013-10-18 03:46:00,
2013-10-17 23:52:00,59.3,44.1,29.86,NW,321,16.1,19.6,57,0.00,BKN,,0.09,0.0,WeatherDisplay:10.37,2013-10-18 03:52:00,
2013-10-17 23:57:00,59.0,44.2,29.87,WNW,290,11.0,18.0,58,0.00,BKN,,0.09,0.0,WeatherDisplay:10.37,2013-10-18 03:57:00,